Location: Belloy
(55.7522°N, 118.2333°W)
Time: 23:06:33
(UTC+00:00)

Envisat - Pass Details

Date: 01 December 2021
Orbit: 764 x 766 km, 98.2° (Epoch: 27 January)

Event Time Altitude Azimuth Distance (km) Brightness Sun altitude
Rises 14:00:42 0° 12° (NNE) 3,250 6.2 -15.4°
Reaches altitude 10° 14:03:05 10° 7° (N) 2,319 5.4 -15.1°
Maximum altitude 14:07:55 45° 296° (WNW) 1,042 3.2 -14.4°
Drops below altitude 10° 14:12:44 10° 225° (SW) 2,304 5.2 -13.8°
Sets 14:15:07 0° 219° (SW) 3,226 6.0 -13.5°
